Hourly Weather Rudensk 2

Today, 5 August, Thursday

Time Temperature Precipitation Wind Pressure Humidity
00:00 +15°C° 0.5 mm 2 mps 745 mmHg 96%
01:00 +15°C° 0.5 mm 2 mps 744 mmHg 97%
02:00 +15°C° 0.5 mm 1 mps 744 mmHg 97%
03:00 +15°C° 0.2 mm 1 mps 744 mmHg 97%
04:00 +15°C° 0.2 mm 1 mps 744 mmHg 97%
05:00 +15°C° 0.2 mm 1 mps 743 mmHg 97%
06:00 +16°C° 0 mm 1 mps 743 mmHg 94%
07:00 +18°C° 0 mm 1 mps 743 mmHg 91%
08:00 +18°C° 0 mm 1 mps 743 mmHg 88%
09:00 +19°C° 0 mm 1 mps 743 mmHg 80%
10:00 +20°C° 0 mm 2 mps 744 mmHg 73%
11:00 +21°C° 0 mm 2 mps 744 mmHg 65%
12:00 +21°C° 0.1 mm 2 mps 743 mmHg 63%
13:00 +22°C° 0.1 mm 3 mps 743 mmHg 61%
14:00 +22°C° 0.1 mm 3 mps 743 mmHg 59%
15:00 +22°C° 0 mm 3 mps 743 mmHg 61%
16:00 +21°C° 0 mm 3 mps 743 mmHg 63%
17:00 +21°C° 0 mm 2 mps 743 mmHg 65%
18:00 +20°C° 0 mm 3 mps 743 mmHg 69%
19:00 +19°C° 0 mm 3 mps 742 mmHg 73%
20:00 +18°C° 0 mm 3 mps 742 mmHg 77%
21:00 +17°C° 0 mm 4 mps 742 mmHg 80%
22:00 +17°C° 0 mm 4 mps 742 mmHg 83%
23:00 +17°C° 0 mm 4 mps 741 mmHg 86%

Tomorrow, 6 August, Friday

Time Temperature Precipitation Wind Pressure Humidity
00:00 +15°C° 0.7 mm 5 mps 741 mmHg 89%
01:00 +15°C° 0.7 mm 5 mps 740 mmHg 92%
02:00 +15°C° 0.7 mm 5 mps 740 mmHg 95%
03:00 +15°C° 0.4 mm 5 mps 739 mmHg 95%
04:00 +15°C° 0.4 mm 6 mps 738 mmHg 95%
05:00 +15°C° 0.4 mm 6 mps 738 mmHg 95%
06:00 +15°C° 0.2 mm 5 mps 737 mmHg 96%
07:00 +16°C° 0.2 mm 5 mps 737 mmHg 96%
08:00 +17°C° 0.2 mm 5 mps 736 mmHg 97%
09:00 +17°C° 0.4 mm 5 mps 736 mmHg 95%
10:00 +19°C° 0.4 mm 5 mps 736 mmHg 94%
11:00 +20°C° 0.4 mm 5 mps 736 mmHg 92%
12:00 +21°C° 0.6 mm 5 mps 735 mmHg 90%
13:00 +21°C° 0.6 mm 5 mps 735 mmHg 87%
14:00 +22°C° 0.6 mm 5 mps 735 mmHg 84%
15:00 +22°C° 0.3 mm 6 mps 735 mmHg 80%
16:00 +22°C° 0.3 mm 6 mps 735 mmHg 76%
17:00 +22°C° 0.3 mm 6 mps 735 mmHg 72%
18:00 +20°C° 0 mm 6 mps 736 mmHg 75%
19:00 +19°C° 0 mm 5 mps 736 mmHg 78%
20:00 +16°C° 0 mm 5 mps 736 mmHg 82%
21:00 +15°C° 0 mm 5 mps 737 mmHg 81%
22:00 +15°C° 0 mm 4 mps 737 mmHg 80%
23:00 +14°C° 0 mm 4 mps 737 mmHg 79%

Day after tomorrow, 7 August, Saturday

Time Temperature Precipitation Wind Pressure Humidity
00:00 +14°C° 0 mm 4 mps 737 mmHg 78%
01:00 +14°C° 0 mm 4 mps 738 mmHg 77%
02:00 +14°C° 0 mm 5 mps 738 mmHg 76%
03:00 +14°C° 0 mm 4 mps 738 mmHg 75%
04:00 +14°C° 0 mm 4 mps 738 mmHg 74%
05:00 +13°C° 0 mm 4 mps 738 mmHg 73%
06:00 +13°C° 0 mm 4 mps 738 mmHg 76%
07:00 +13°C° 0 mm 4 mps 739 mmHg 80%
08:00 +13°C° 0 mm 4 mps 739 mmHg 83%
09:00 +13°C° 0 mm 4 mps 739 mmHg 85%
10:00 +13°C° 0 mm 5 mps 740 mmHg 86%
11:00 +13°C° 0 mm 5 mps 740 mmHg 88%
12:00 +14°C° 0 mm 5 mps 740 mmHg 82%
13:00 +15°C° 0 mm 5 mps 741 mmHg 77%
14:00 +16°C° 0 mm 5 mps 741 mmHg 71%
15:00 +18°C° 0 mm 4 mps 741 mmHg 66%
16:00 +20°C° 0 mm 4 mps 741 mmHg 62%
17:00 +21°C° 0 mm 3 mps 741 mmHg 58%
18:00 +19°C° 0 mm 3 mps 742 mmHg 64%
19:00 +18°C° 0 mm 3 mps 742 mmHg 70%
20:00 +17°C° 0 mm 2 mps 742 mmHg 76%
21:00 +16°C° 0 mm 2 mps 742 mmHg 80%
22:00 +16°C° 0 mm 2 mps 743 mmHg 83%
23:00 +16°C° 0 mm 2 mps 743 mmHg 87%

8 August, Sunday

Time Temperature Precipitation Wind Pressure Humidity
00:00 +15°C° 0 mm 2 mps 743 mmHg 89%
01:00 +15°C° 0 mm 2 mps 744 mmHg 90%
02:00 +15°C° 0 mm 2 mps 744 mmHg 92%
03:00 +15°C° 0 mm 2 mps 744 mmHg 93%
04:00 +15°C° 0 mm 2 mps 744 mmHg 93%
05:00 +15°C° 0 mm 2 mps 744 mmHg 93%
06:00 +17°C° 0 mm 2 mps 744 mmHg 87%
07:00 +18°C° 0 mm 2 mps 745 mmHg 80%
08:00 +20°C° 0 mm 2 mps 745 mmHg 73%
09:00 +22°C° 0 mm 3 mps 745 mmHg 66%
10:00 +25°C° 0 mm 3 mps 745 mmHg 59%
11:00 +26°C° 0 mm 4 mps 745 mmHg 52%
12:00 +27°C° 0 mm 4 mps 745 mmHg 51%
13:00 +28°C° 0 mm 4 mps 745 mmHg 49%
14:00 +28°C° 0 mm 4 mps 745 mmHg 47%
15:00 +28°C° 0 mm 4 mps 745 mmHg 49%
16:00 +28°C° 0 mm 4 mps 744 mmHg 50%
17:00 +28°C° 0 mm 4 mps 744 mmHg 51%
18:00 +27°C° 0 mm 4 mps 744 mmHg 57%
19:00 +25°C° 0 mm 3 mps 745 mmHg 63%
20:00 +22°C° 0 mm 3 mps 745 mmHg 69%
21:00 +21°C° 0 mm 3 mps 745 mmHg 70%
22:00 +20°C° 0 mm 3 mps 745 mmHg 72%
23:00 +20°C° 0 mm 3 mps 745 mmHg 73%

9 August, Monday

Time Temperature Precipitation Wind Pressure Humidity
00:00 +19°C° 0 mm 3 mps 745 mmHg 79%
01:00 +18°C° 0 mm 2 mps 745 mmHg 85%
02:00 +18°C° 0 mm 2 mps 745 mmHg 90%
03:00 +18°C° 0.2 mm 1 mps 745 mmHg 91%
04:00 +18°C° 0.2 mm 1 mps 745 mmHg 93%
05:00 +16°C° 0.2 mm 0 mps 745 mmHg 94%
06:00 +19°C° 0.3 mm 1 mps 746 mmHg 90%
07:00 +21°C° 0.3 mm 1 mps 746 mmHg 86%
08:00 +22°C° 0.3 mm 1 mps 746 mmHg 82%
09:00 +23°C° 0.1 mm 1 mps 746 mmHg 78%
10:00 +24°C° 0.1 mm 1 mps 746 mmHg 73%
11:00 +25°C° 0.1 mm 2 mps 746 mmHg 69%
12:00 +25°C° 0.2 mm 1 mps 746 mmHg 70%
13:00 +25°C° 0.2 mm 1 mps 746 mmHg 72%
14:00 +25°C° 0.2 mm 1 mps 746 mmHg 73%
15:00 +24°C° 0.4 mm 2 mps 746 mmHg 74%
16:00 +24°C° 0.4 mm 3 mps 746 mmHg 75%
17:00 +24°C° 0.4 mm 3 mps 746 mmHg 76%
18:00 +21°C° 0 mm 3 mps 747 mmHg 80%
19:00 +20°C° 0 mm 3 mps 747 mmHg 85%
20:00 +18°C° 0 mm 3 mps 747 mmHg 90%
21:00 +18°C° 0 mm 3 mps 748 mmHg 91%
22:00 +17°C° 0 mm 3 mps 748 mmHg 91%
23:00 +16°C° 0 mm 2 mps 748 mmHg 92%

10 August, Tuesday

Time Temperature Precipitation Wind Pressure Humidity
00:00 +16°C° 0 mm 2 mps 748 mmHg 93%
01:00 +15°C° 0 mm 2 mps 748 mmHg 93%
02:00 +15°C° 0 mm 2 mps 748 mmHg 94%
03:00 +15°C° 0 mm 2 mps 748 mmHg 94%
04:00 +14°C° 0 mm 2 mps 748 mmHg 94%
05:00 +14°C° 0 mm 2 mps 748 mmHg 94%
06:00 +16°C° 0 mm 2 mps 748 mmHg 86%
07:00 +17°C° 0 mm 3 mps 749 mmHg 78%
08:00 +19°C° 0 mm 3 mps 749 mmHg 70%
09:00 +20°C° 0 mm 3 mps 749 mmHg 64%
10:00 +21°C° 0 mm 3 mps 749 mmHg 58%
11:00 +22°C° 0 mm 3 mps 749 mmHg 53%
12:00 +24°C° 0 mm 3 mps 748 mmHg 52%
13:00 +24°C° 0 mm 3 mps 748 mmHg 50%
14:00 +24°C° 0 mm 3 mps 748 mmHg 49%
15:00 +24°C° 0 mm 3 mps 748 mmHg 52%
16:00 +22°C° 0 mm 3 mps 748 mmHg 56%
17:00 +23°C° 0 mm 2 mps 748 mmHg 60%
18:00 +21°C° 0 mm 2 mps 748 mmHg 63%
19:00 +20°C° 0 mm 2 mps 747 mmHg 67%
20:00 +18°C° 0 mm 2 mps 747 mmHg 71%
21:00 +18°C° 0 mm 2 mps 747 mmHg 72%
22:00 +17°C° 0 mm 2 mps 747 mmHg 73%
23:00 +17°C° 0 mm 2 mps 747 mmHg 74%
Show more

We Need Your Consent

Meteoprog and our Service Providers may store and access personal data such as cookies, device identifiers or other similar technologies on your device and process such data to personalise content and ads, as well as provide social media features and to analyse the traffic.

  • Store and/or access information on your device

    Cookies, device identifiers or other information can be stored or accessed on your device for the purposes indicated above.

  • Personalised ads and content, ad and content measurement, audience insights, and products development

    Ads and content can be personalised based on a profile. More data can be added to better personalise ads and content. Ad and content performance can be measured. Insights about the audience who saw the ads and content can be derived. Such data can be used to develop or improve user’s experience, systems and software.

By clicking ‘I Agree’ you will allow the use of indicated cookies, device identifiers, web beacons or other similar technologies. Your settings can be changed in the browser on your device.

For certain purposes, legitimate interests may be relied on, rather than consent. You can read more about this in our Privacy and Cookie Policy.